Find GPS IIA-6

NORAD ID: 22108 Int'l Des: 1992-058 Owner: AFSMC Country: US Constellation: GPS operational
MEOCIRCULAR

Live Position

Loading 3D Globe...

About GPS IIA-6

Description loading...

Upcoming Passes

Passes for default location (London). Set your location on the main map for personalized predictions.

Altitude History

Loading altitude history...

Two-Line Element Set

1 22108U 92058A 26106.36956141 .00000072 00000-0 00000+0 0 9995
2 22108 54.6617 168.9813 0017109 44.4136 315.8115 1.87561028241863
Epoch: Apr 16, 2026 • Age: 25 hours

Current Status

Altitude 21373.2 km
Velocity 3.79 km/s
Sub-Earth Point -11.10°S, 165.77°E
Launch Date Sep 9, 1992
Age 33.6 years
Type navigation

Technical Details

Classification Payload
Mass 860.00 kg
Dry Mass 860.00 kg
Total Mass 1881.00 kg
Length 2.40 m
Diameter 1.80 m
Span 5.30 m
Shape Box + 2 Pan
Manufacturer RWISB
Bus Type GPS IIA
Phase Status In Orbit
Owner/State AFSMC/US

Most Searched